Miscellaneous Local Product
Issued by NWS Hastings, NE

Home | Current Version | Previous Version | Graphics & Text | Print | Product List | Glossary On
Versions: 1 2 3 4 5 6 7 8 9 10 11 12 13 14 15 16 17 18 19 20 21 22 23 24 25 26 27 28 29 30 31 32 33 34 35 36 37 38 39 40 41 42 43 44 45 46 47 48 49 50
000
AXUS43 KGID 052002
MISGRI

GID CWA HOURLY WEATHER ROUNDUP
NATIONAL WEATHER SERVICE HASTINGS NE
300 PM CDT THU MAY 05 2016

NOTE: "FAIR" INDICATES FEW OR NO CLOUDS BELOW 12,000 FEET WITH NO
SIGNIFICANT WEATHER AND/OR OBSTRUCTIONS TO VISIBILITY.

...SOUTH CENTRAL NEBRASKA...

CITY           SKY/WX    TMP DP  RH WIND       PRES   REMARKS
GRAND ISLAND   SUNNY     78  40  25 S9        30.05F
HASTINGS       SUNNY     77  40  26 VRB7      30.05F
KEARNEY        SUNNY     79  43  27 S5G18     30.06S
ORD            SUNNY     78  48  34 S12       30.02F
YORK           SUNNY     77  34  20 CALM      30.05F
AURORA         SUNNY     78  35  21 S7        30.04F
HOLDREGE       SUNNY     78  44  30 S13G20    30.06S
HEBRON         SUNNY     76  35  21 CALM      30.06F

...NEBRASKA PANHANDLE...

CITY           SKY/WX    TMP DP  RH WIND       PRES   REMARKS
CHADRON        SUNNY     84  42  22 W3        29.92F
ALLIANCE       SUNNY     82  39  21 S15       29.98F
SCOTTSBLUFF    CLOUDY    82  38  20 SW3       29.99F
SIDNEY         CLOUDY    81  41  24 SW15G23   30.04F

...WESTERN AND NORTH CENTRAL NEBRASKA...

CITY           SKY/WX    TMP DP  RH WIND       PRES   REMARKS
VALENTINE      SUNNY     85  41  21 S17       29.94F
AINSWORTH      SUNNY     82  42  24 S12G18    29.98F
ONEILL         SUNNY     80  42  26 S8        30.01F
BROKEN BOW     SUNNY     80  50  34 S14G21    30.03F
IMPERIAL       CLOUDY    81  42  25 S12       30.03F
NORTH PLATTE   SUNNY     81  47  30 S15       30.01F
MCCOOK         SUNNY     79  50  36 S12       30.03F

...EASTERN NEBRASKA...

CITY           SKY/WX    TMP DP  RH WIND       PRES   REMARKS
NORFOLK        SUNNY     79  38  22 SE9       30.02F
SO SIOUX CITY  SUNNY     77  46  33 SE9       30.03S
TEKAMAH        SUNNY     75  39  27 SE9       30.04F
COLUMBUS       SUNNY     75  37  25 S5        30.05F
ALBION         SUNNY     78  40  25 SW3       30.02F
OMAHA EPPLEY   MOSUNNY   75  40  28 SE8       30.05F
OFFUTT AFB     SUNNY     74  42  31 VRB3      30.05S
MILLARD        SUNNY     74  37  25 CALM      30.05F
LINCOLN        SUNNY     78  37  22 NW5       30.06F
NEBRASKA CITY  SUNNY     73  37  26 NE5       30.06F
BEATRICE       SUNNY     76  39  26 CALM      30.06F
FALLS CITY     SUNNY     75  38  26 VRB5      30.06F

...NORTHERN KANSAS...

CITY           SKY/WX    TMP DP  RH WIND       PRES   REMARKS
GOODLAND       SUNNY     80  42  25 S18       30.06F
HILL CITY      SUNNY     81  47  30 S13       30.06F
NORTON         CLEAR     79  39  24 S10       30.04F
PHILLIPSBURG   SUNNY     79  46  31 SE9       30.06F
SMITH CENTER   SUNNY     73  50  43 SW5       30.07F
BELOIT         SUNNY     77  39  25 S6        30.06S
HAYS           SUNNY     77  46  33 S12       30.07F
RUSSELL        SUNNY     76  44  32 S7        30.06F
CONCORDIA      SUNNY     78  37  22 CALM      30.06F
SALINA         SUNNY     78  41  26 VRB3      30.08F
TOPEKA         SUNNY     75  40  28 NE9       30.07S



USA.gov is the U.S. government's official web portal to all federal, state and local government web resources and services.